map of BED home
Great Circle Mapper logo
BED - Airport
Location
City:  Bedford, Massachusetts, United States
Name:Laurence G Hanscom Field
ICAO / IATA:KBED / BED
FAA:BED

Details
Type:Airport (Part 139 Class I)
Use:Public/Civil, International (customs landing rights)
Latitude:4228'12"N (42.469944)
Longitude:7117'20"W (-71.288999)
Datum:WGS 1984
Elevation:132 ft (40 m)
Runways:2
Longest:7011 × 150 ft (2137 × 45.5 m), paved

Time
Time Zone:UTC-5 (DST-4)
Local Time:

Weather
METAR:KBED 220656Z AUTO 01008KT 5SM BR OVC005 09/09 A2998 RMK AO2 SLP165 T00940089 TSNO
TAF:KBED 220542Z 2206/2306 01010KT 6SM BR OVC004
FM221500 02013KT 2SM BR OVC008
FM221900 02014KT 2SM -SHRA BR OVC008
FM230300 03015KT 1SM +SHRA BR OVC003 WS020/04040KT

Related Locations
Nearby:
Farthest:MGV: 11750 mi / 18909 km
Margaret River, WA, AU

Find:

   beyond  
but within

Other Information
Maps:
Delays:
NOTAMs:
Links:
Sources:

  
flag of United States
flag of Massachusetts
  

Airport Diagram

Airport diagram for BED

Airport diagram PDF

Sectional Chart

Flight Planning
at skyvector.com

Satellite Image

Google Maps Satellite View

 

Copyright © 2004-2014 Karl L. Swartz. All rights reserved.
The Great Circle Mapper name and logo are trademarks of the Great Circle Mapper.
All other trademarks mentioned herein belong to their respective owners.
Please see credits for attibutions and further copyright information.

  Follow gcmap on Facebook Follow gcmap on Twitter

hCard Microformat

Geo Microformat